Location: *
(52.2090°N, 4.1550°W)
Time: 04:54:27
(UTC+00:00)

Cosmos 1633 Rocket - Pass Details

Date: 19 July 2019
Orbit: 608 x 623 km, 82.5° (Epoch: 20 August)

Event Time Altitude Azimuth Distance (km) Brightness Sun altitude
Exits shadow 22:49:21 21° 181° (S) 1,370 4.3 -14.2°
Maximum altitude 22:52:10 75° 99° (E) 636 3.0 -14.4°
Drops below altitude 10° 22:56:32 10° 14° (NNE) 1,976 6.5 -14.6°
Sets 22:58:46 0° 12° (NNE) 2,887 7.5 -14.8°
